This is the latest recevied weather packets stored in our database for station/object DM5EI-L4. If no packets are shown the sender has not sent any weather packets the latest 10 day(s).
| Time | Temp. | Humidity | Pressure | Rain* | Wind** | Luminosity | Snow |
|---|---|---|---|---|---|---|---|
| 1777912141 | 17.22° C | 97% | 1014 hPa | - | - | - | - |
| 1777911240 | 17.22° C | 96% | 1014 hPa | - | - | - | - |
| 1777910339 | 17.78° C | 96% | 1014 hPa | - | - | - | - |
| 1777909438 | 18.33° C | 95% | 1014 hPa | - | - | - | - |
| 1777908537 | 20.56° C | 94% | 1014 hPa | - | - | - | - |
| 1777907635 | 22.22° C | 95% | 1014 hPa | - | - | - | - |
| 1777906734 | 20° C | 97% | 1014 hPa | - | - | - | - |
| 1777905833 | 20.56° C | 96% | 1014 hPa | - | - | - | - |
| 1777904932 | 20.56° C | 97% | 1014 hPa | - | - | - | - |
| 1777904031 | 19.44° C | 97% | 1014 hPa | - | - | - | - |
| 1777903130 | 19.44° C | 97% | 1014 hPa | - | - | - | - |
| 1777902229 | 20° C | 97% | 1014 hPa | - | - | - | - |
| 1777901328 | 20.56° C | 97% | 1014 hPa | - | - | - | - |
| 1777900426 | 21.11° C | 97% | 1014 hPa | - | - | - | - |
| 1777899525 | 21.11° C | 97% | 1014 hPa | - | - | - | - |
| 1777898624 | 21.11° C | 98% | 1014 hPa | - | - | - | - |
| 1777897723 | 21.67° C | 98% | 1014 hPa | - | - | - | - |
| 1777896822 | 21.67° C | 97% | 1014 hPa | - | - | - | - |
| 1777895921 | 22.22° C | 100% | 1014 hPa | - | - | - | - |
| 1777895020 | 21.11° C | 98% | 1014 hPa | - | - | - | - |
| 1777894119 | 21.11° C | 99% | 1014 hPa | - | - | - | - |
| 1777893218 | 21.11° C | 97% | 1014 hPa | - | - | - | - |
| 1777892317 | 21.11° C | 98% | 1014 hPa | - | - | - | - |
| 1777891415 | 20.56° C | 98% | 1014 hPa | - | - | - | - |
| 1777890514 | 20° C | 98% | 1014 hPa | - | - | - | - |
* Rain since midnight (hover to see other rain measurements)
** Current wind speed in m/s (hover to see current wind gust speed)